This demonstration page uses our WeatherBlox Daily Observations layout. Learn more.

Left ArrowRight Arrow

31.84235, -102.49876

Hourly Observations for July 25, 2022

Temp ( °F °C ) Dew Point ( °F °C ) Humidity (%) Winds ( mph kmh ) Pressure ( in mb ) Visibility ( mi km ) Precip ( " mm )
12:53 am 00:53 Clear 86 30 55 12.8 35 35 S 13 20 29.88 1012 10 16 0.00 0.00
1:53 am 01:53 Clear 84 28.9 55 12.8 37 37 SSE 8 13 29.88 1012 10 16 0.00 0.00
2:53 am 02:53 Clear 83 28.3 54 12.2 37 37 SE 10 17 29.87 1012 10 16 0.00 0.00
3:53 am 03:53 Clear 81 27.2 56 13.3 42 42 SSE 16 26 29.88 1012 10 16 0.00 0.00
4:53 am 04:53 Clear 81 27.2 60 15.6 49 49 SSE 16 26 29.88 1012 10 16 0.00 0.00
5:53 am 05:53 Clear 79 26.1 63 17.2 58 58 SSE 12 19 29.88 1012 10 16 0.00 0.00
6:53 am 06:53 Clear 78 25.6 64 17.8 62 62 S 14 22 29.88 1012 10 16 0.00 0.00
7:53 am 07:53 Sunny 78 25.6 64 17.8 62 62 S 12 19 29.90 1013 10 16 0.00 0.00
8:53 am 08:53 Sunny 80 26.7 65 18.3 60 60 S 18 30 29.91 1013 10 16 0.00 0.00
9:53 am 09:53 Sunny 83 28.3 65 18.3 55 55 S 17 28 29.92 1013 10 16 0.00 0.00
10:53 am 10:53 Sunny 87 30.6 64 17.8 46 46 S 15 24 29.91 1013 10 16 0.00 0.00
11:53 am 11:53 Sunny 90 32.2 63 17.2 41 41 S 15 24 29.91 1013 10 16 0.00 0.00
12:53 pm 12:53 Sunny 92 33.3 60 15.6 34 34 SSE 10 17 29.88 1012 10 16 0.00 0.00
1:53 pm 13:53 Sunny 94 34.4 60 15.6 32 32 VRB 6 9 29.86 1011 10 16 0.00 0.00
2:53 pm 14:53 Mostly Sunny 97 36.1 58 14.4 27 27 S 16 26 29.83 1010 10 16 0.00 0.00
3:53 pm 15:53 Sunny 97 36.1 58 14.4 27 27 SW 9 15 29.81 1009 10 16 0.00 0.00
4:53 pm 16:53 Sunny 98 36.7 57 13.9 25 25 SSE 13 20 29.78 1008 10 16 0.00 0.00
5:53 pm 17:53 Mostly Sunny 98 36.7 57 13.9 25 25 SSE 17 28 29.76 1008 10 16 0.00 0.00
6:53 pm 18:53 Sunny 97 36.1 56 13.3 25 25 SSE 17 28 29.75 1008 10 16 0.00 0.00
7:53 pm 19:53 Sunny 96 35.6 54 12.2 24 24 SSE 17 28 29.76 1008 10 16 0.00 0.00
8:53 pm 20:53 Clear 93 33.9 52 11.1 25 25 SSE 21 33 29.78 1008 10 16 0.00 0.00
9:53 pm 21:53 Clear 91 32.8 50 10 25 25 S 15 24 29.81 1010 10 16 0.00 0.00
10:53 pm 22:53 Clear 89 31.7 50 10 26 26 S 14 22 29.85 1011 10 16 0.00 0.00
11:53 pm 23:53 Clear 87 30.6 51 10.6 29 29 S 12 19 29.86 1011 10 16 0.00 0.00

Powered by AerisWeather